Location: Newark
(15.4608°S, 41.1635°W)
Time: 11:23:01
(UTC+00:00)

Vanguard 1 Rocket - All Passes

Search period start: 07 March 2021 00:00
Search period end: 17 March 2021 00:00
Orbit: 654 x 4223 km, 34.3° (Epoch: 07 March)

Date Brightness Start Highest point End Pass type
(mag) Time Alt. Az. Time Alt. Az. Time Alt. Az.
07 Mar - 00:26:30 10° W 00:35:43 29° NNW 00:50:55 10° NNE visible
07 Mar - 08:30:23 10° N 08:37:11 12° NNE 08:42:51 10° NE visible
07 Mar - 10:55:25 10° NNW 11:09:05 37° NNE 11:16:41 10° E daylight
07 Mar - 13:26:07 10° WNW 13:36:02 62° SW 13:41:33 10° SE daylight
07 Mar - 16:00:08 10° SW 16:01:46 11° SSW 16:03:18 10° S daylight
07 Mar - 18:28:12 10° S 18:29:34 11° SSE 18:31:01 10° SE daylight
07 Mar - 20:49:47 10° SW 20:55:27 57° SE 21:05:44 10° ENE daylight
07 Mar - 23:14:26 10° W 23:22:25 41° NNW 23:37:09 10° NE visible
08 Mar - 01:46:52 10° NW 01:54:13 14° NNW 02:03:32 10° N visible
08 Mar - 09:41:56 10° NNW 09:55:47 26° NNE 10:04:26 10° E daylight
08 Mar - 12:11:32 10° NW 12:24:39 77° NNE 12:31:17 10° ESE daylight
08 Mar - 14:44:41 10° W 14:50:16 23° SSW 14:54:18 10° SSE daylight
08 Mar - 19:39:57 10° SSW 19:44:22 29° SSE 19:50:51 10° E daylight
08 Mar - 22:03:22 10° WSW 22:10:03 62° NNW 22:23:03 10° NE visible
09 Mar - 00:31:24 10° WNW 00:39:29 21° NNW 00:51:31 10° NNE visible
09 Mar - 08:29:06 10° N 08:41:23 18° NNE 08:50:18 10° ENE visible
09 Mar - 10:57:05 10° NW 11:12:29 50° NNE 11:20:30 10° ESE daylight
09 Mar - 13:29:28 10° WNW 13:39:05 45° SSW 13:44:36 10° SE daylight
09 Mar - 18:30:34 10° S 18:33:05 14° SSE 18:35:54 10° SE daylight
09 Mar - 20:52:55 10° SW 20:58:31 79° SSE 21:08:51 10° ENE daylight
09 Mar - 23:18:30 10° W 23:25:57 30° NNW 23:38:31 10° NNE visible
10 Mar - 07:18:16 10° N 07:25:37 12° NNE 07:32:01 10° NE visible
10 Mar - 09:42:54 10° NNW 09:59:25 35° NNE 10:08:51 10° E daylight
10 Mar - 12:14:13 10° WNW 12:27:45 80° SW 12:34:33 10° SE daylight
10 Mar - 14:48:55 10° WSW 14:53:35 18° SSW 14:57:09 10° SSE daylight
10 Mar - 19:42:53 10° SW 19:47:30 39° SSE 19:54:36 10° E daylight
10 Mar - 22:06:57 10° W 22:13:23 44° NNW 22:25:09 10° NE visible
11 Mar - 00:37:34 10° NW 00:43:28 14° NNW 00:51:06 10° N visible
11 Mar - 08:29:17 10° NNW 08:45:17 25° NNE 08:55:50 10° ENE visible
11 Mar - 10:59:05 10° NW 11:15:45 67° NNE 11:24:00 10° ESE daylight
11 Mar - 13:33:09 10° W 13:42:11 34° SSW 13:47:36 10° SE daylight
11 Mar - 18:33:11 10° SSW 18:36:27 19° SSE 18:40:20 10° ESE daylight
11 Mar - 20:56:11 10° WSW 21:01:40 73° NNW 21:11:38 10° NE daylight
11 Mar - 23:23:11 10° WNW 23:29:39 20° NNW 23:39:21 10° NNE visible
12 Mar - 07:16:43 10° N 07:30:00 17° NNE 07:40:19 10° ENE visible
12 Mar - 09:44:18 10° NW 10:02:50 47° NNE 10:12:47 10° ESE daylight
12 Mar - 12:17:14 10° WNW 12:30:46 62° SSW 12:37:41 10° SE daylight
12 Mar - 14:53:18 10° SW 14:57:02 15° SSW 15:00:02 10° SSE daylight
12 Mar - 19:45:54 10° SW 19:50:37 58° SSE 19:58:04 10° ENE daylight
12 Mar - 22:10:52 10° W 22:16:52 30° NNW 22:26:50 10° NNE visible
13 Mar - 06:07:46 10° N 06:13:16 11° NNE 06:18:25 10° NE visible
13 Mar - 08:30:04 10° NNW 08:48:55 33° NNE 09:00:30 10° E visible
13 Mar - 11:01:25 10° NW 11:18:51 86° NNE 11:27:20 10° ESE daylight
13 Mar - 13:37:05 10° W 13:45:22 27° SSW 13:50:35 10° SSE daylight
13 Mar - 18:35:55 10° SSW 18:39:44 26° SSE 18:44:27 10° E daylight
13 Mar - 20:59:39 10° WSW 21:04:56 48° NNW 21:14:04 10° NE daylight
13 Mar - 23:29:10 10° NW 23:33:31 13° NNW 23:39:04 10° N visible
14 Mar - 07:16:45 10° NNW 07:33:58 24° NNE 07:46:23 10° ENE visible
14 Mar - 09:46:01 10° NW 10:06:04 60° NNE 10:16:24 10° ESE daylight
14 Mar - 12:20:35 10° WNW 12:33:46 48° SSW 12:40:45 10° SE daylight
14 Mar - 14:57:40 10° SW 15:00:36 13° SSW 15:03:05 10° S daylight
14 Mar - 17:26:09 10° SSW 17:28:25 13° SSE 17:30:42 10° SE daylight
14 Mar - 19:49:02 10° WSW 19:53:45 88° SSE 20:01:12 10° ENE daylight
14 Mar - 22:15:23 10° WNW 22:20:29 20° NNW 22:27:58 10° NNE visible
15 Mar - 06:05:07 10° N 06:17:51 16° NNE 06:28:44 10° ENE visible
15 Mar - 08:31:15 10° NNW 08:52:19 43° NNE 09:04:36 10° E visible
15 Mar - 11:04:05 10° WNW 11:21:50 77° SW 11:30:31 10° SE daylight
15 Mar - 13:41:12 10° WSW 13:48:40 23° SSW 13:53:37 10° SSE daylight
15 Mar - 18:38:46 10° SW 18:42:57 39° SSE 18:48:14 10° E daylight
15 Mar - 21:03:26 10° W 21:08:20 31° NNW 21:16:07 10° NNE visible
16 Mar - 07:17:26 10° NNW 07:37:36 31° NNE 07:51:23 10° E visible
16 Mar - 09:48:03 10° NW 10:09:09 76° NNE 10:19:47 10° ESE daylight
16 Mar - 12:24:12 10° W 12:36:51 39° SSW 12:43:48 10° SE daylight
16 Mar - 15:01:42 10° SW 15:04:17 12° SSW 15:06:31 10° SSE daylight
16 Mar - 17:28:38 10° SSW 17:31:53 19° SSE 17:35:11 10° ESE daylight
16 Mar - 19:52:22 10° WSW 19:56:58 57° NNW 20:03:59 10° NE daylight
16 Mar - 22:21:19 10° NW 22:24:15 12° NNW 22:27:47 10° N visible
